Weather Service Report


263 
ASUS43 KDMX 011510
RWRIA 

WEATHER ROUNDUP FOR IOWA
NATIONAL WEATHER SERVICE DES MOINES IA
1000 AM CDT FRI JUL 01 2016

NOTE: "FAIR" INDICATES FEW OR NO CLOUDS BELOW 12,000 FEET WITH NO
SIGNIFICANT WEATHER AND/OR OBSTRUCTIONS TO VISIBILITY.

* - THESE STATIONS ARE NOT NWS STATIONS...THUS NOT UNDER NWS
QUALITY CONTROL.  THEY ALSO DO NOT REPORT WEATHER SUCH 
AS PRECIPITATION OR FOG.  

IAZ001>003-012>014-020>022-031>034-043>046-011600-
   NORTHWEST IOWA
  
CITY           SKY/WX    TMP DP  RH WIND       PRES   REMARKS
CARROLL *      SUNNY     66  55  68 VRB6      30.19S                  
CHEROKEE *     CLOUDY    65  57  74 E6        30.20S                  
DENISON *      MOSUNNY   64  55  72 E8        30.18R                  
LE MARS *      PTSUNNY   66  55  68 SE6       30.21S                  
SHELDON *      SUNNY     64  55  72 E8        30.19S                  
SIOUX CITY     SUNNY     65  53  65 NE3       30.20S                  
SPENCER        SUNNY     65  54  67 VRB6      30.20S                  
$$
 
IAZ055>058-069>071-079>083-090>094-011600-
   SOUTHWEST IOWA
  
CITY           SKY/WX    TMP DP  RH WIND       PRES   REMARKS
COUNCIL BLFS * SUNNY     66  55  68 NE6       30.18S                  
CRESTON *      SUNNY     68  54  60 NE15      30.17S                  
LAMONI         SUNNY     70  58  65 NE8       30.16R                  
$$
 
IAZ047>049-059>061-072>074-084-011600-
   CENTRAL IOWA
  
CITY           SKY/WX    TMP DP  RH WIND       PRES   REMARKS
AMES           SUNNY     68  55  63 E9        30.18R                  
ANKENY *         N/A    N/A N/A N/A MISG        N/A                   
BOONE *        SUNNY     68  55  64 E7        30.18R                  
DES MOINES     CLOUDY    70  56  61 NE10      30.16R                  
MARSHALLTOWN   SUNNY     66  57  72 NE8       30.17R                  
$$
 
IAZ004>006-015-016-023>025-035-036-011600-
   NORTH CENTRAL IOWA
  
CITY           SKY/WX    TMP DP  RH WIND       PRES   REMARKS
ALGONA *       SUNNY     64  55  72 NE6       30.20S                  
ESTHERVILLE    MOSUNNY   63  56  78 VRB7      30.21S                  
FORT DODGE *   SUNNY     66  54  63 NE7       30.20R                  
MASON CITY     CLOUDY    61  55  81 NE8       30.22R                  
$$

IAZ007>011-017>019-026>030-037>042-050>054-066-011600-
   NORTHEAST IOWA
  
CITY           SKY/WX    TMP DP  RH WIND       PRES   REMARKS
CEDAR RAPIDS   SUNNY     65  57  75 NE9       30.14R                  
CLINTON *      MOSUNNY   64  56  75 NE15      30.13R                  
DUBUQUE        MOSUNNY   64  53  67 NE13      30.14S                  
MONTICELLO *   MOSUNNY   66  55  68 NE9       30.15R                  
WATERLOO       PTSUNNY   63  55  75 NE8       30.17R                  
$$
 
IAZ064-065-067-068-078-011600-
   EAST CENTRAL IOWA
  
CITY           SKY/WX    TMP DP  RH WIND       PRES   REMARKS
DAVENPORT      MOSUNNY   65  55  70 NE10G20   30.13R                  
IOWA CITY      SUNNY     66  57  72 NE13      30.15R                  
MUSCATINE *    PTSUNNY   68  57  68 NE13G20   30.13R                  
QUAD CITIES    MOSUNNY   67  54  63 NE12      30.12R                  
$$
 
IAZ062-063-075>077-085>089-095>099-011600-
   SOUTHEAST IOWA
  
CITY           SKY/WX    TMP DP  RH WIND       PRES   REMARKS
BURLINGTON     SUNNY     70  59  68 NE9       30.12R                  
KEOKUK *       SUNNY     70  61  73 N8G14     30.11S                  
OTTUMWA        SUNNY     68  57  68 NW7       30.15R                  
WASHINGTON *   MOSUNNY   66  59  77 NE13      30.15R                  
$$

ABBREVIATIONS USED IN REMARKS
   TC - TEMPERATURES IN CELSIUS
  WCI - WIND CHILL INDEX
   HX - HEAT INDEX
  VSB - VISIBILITY  
$$

  

Return to Home page


Western Regional Climate Center, wrcc@dri.edu